Total_Precipitation_Accumulation
0.12 0.22 0.24 0.24 0.22 0.18 0.15 0.12 0.22 0.26 0.37 0.46 0.48 0.61 0.79 0.96 0.96 0.89 0.73 0.65 0.73 0.73 0.77 0.80 0.81 0.89 0.84 0.83 0.88 1.01 1.19 1.31 1.45 1.46 1.44 1.43 1.48 1.52 1.55 1.64 1.64 1.70 1.76 1.78
0.16 0.19 0.24 0.27 0.25 0.19 0.13 0.12 0.16 0.24 0.38 0.50 0.57 0.68 0.76 0.73 0.67 0.61 0.55 0.46 0.44 0.60 0.69 0.65 0.65 0.69 0.64 0.69 0.82 0.97 1.06 1.17 1.37 1.51 1.54 1.54 1.57 1.65 1.70 1.70 1.70 1.74 1.70 1.75
0.25 0.25 0.25 0.34 0.33 0.24 0.15 0.14 0.20 0.32 0.49 0.65 0.56 0.58 0.66 0.64 0.62 0.58 0.56 0.41 0.34 0.42 0.58 0.57 0.57 0.59 0.68 0.81 0.95 1.06 1.20 1.33 1.51 1.62 1.71 1.72 1.68 1.78 1.74 1.74 1.79 1.75 1.68 1.67
0.31 0.43 0.52 0.37 0.30 0.29 0.29 0.26 0.28 0.40 0.42 0.56 0.57 0.63 0.75 0.73 0.72 0.57 0.50 0.41 0.36 0.37 0.42 0.49 0.55 0.63 0.77 1.05 1.26 1.30 1.45 1.63 1.73 1.84 1.81 1.78 1.78 1.80 1.86 1.93 1.96 1.92 1.85 1.77
0.47 0.61 0.52 0.45 0.32 0.36 0.41 0.54 0.56 0.64 0.61 0.56 0.56 0.67 0.76 0.66 0.58 0.59 0.48 0.44 0.43 0.42 0.48 0.58 0.63 0.68 0.89 1.11 1.35 1.48 1.54 1.67 1.85 1.95 1.98 2.00 2.02 1.97 2.02 2.09 2.04 1.96 1.92 1.96
0.59 0.74 0.73 0.61 0.48 0.47 0.58 1.03 0.86 0.79 0.81 0.69 0.65 0.78 0.87 0.81 0.73 0.66 0.59 0.55 0.54 0.56 0.64 0.79 0.89 0.93 1.08 1.19 1.33 1.50 1.58 1.70 1.88 2.10 2.16 2.18 2.31 2.37 2.30 2.25 2.12 2.13 2.13 2.11
0.74 0.80 0.87 0.74 0.68 0.71 1.11 1.39 1.08 0.91 0.87 0.85 0.96 0.97 0.91 0.81 0.81 0.75 0.64 0.66 0.64 0.66 0.78 0.98 1.12 1.18 1.28 1.41 1.51 1.53 1.62 1.75 1.95 2.13 2.22 2.28 2.42 2.49 2.45 2.41 2.39 2.33 2.26 2.29
0.89 1.08 1.24 0.87 0.84 1.24 1.50 1.26 1.25 1.21 1.13 1.02 0.99 0.95 0.90 0.82 0.80 0.75 0.72 0.77 0.77 0.81 0.95 1.18 1.35 1.31 1.36 1.42 1.47 1.52 1.55 1.66 1.79 1.96 2.00 2.09 2.33 2.40 2.47 2.49 2.45 2.36 2.30 2.17
1.20 1.32 1.22 1.02 1.10 1.26 1.39 1.55 1.46 1.34 1.35 1.16 1.11 1.02 0.93 0.85 0.82 0.80 0.76 0.82 0.84 0.90 1.10 1.34 1.49 1.51 1.57 1.46 1.52 1.56 1.59 1.72 1.86 1.94 2.01 2.13 2.21 2.22 2.29 2.36 2.32 2.22 2.20 2.13
1.37 1.41 1.33 1.19 1.06 1.00 1.12 1.24 1.22 1.22 1.21 1.17 1.13 1.07 0.99 0.88 0.81 0.81 0.81 0.76 0.80 0.89 0.98 1.07 1.27 1.45 1.54 1.58 1.63 1.65 1.67 1.72 1.80 1.91 1.93 1.97 2.09 2.17 2.27 2.38 2.45 2.34 2.23 2.13
1.62 1.53 1.40 1.41 1.30 1.18 1.25 1.31 1.22 1.16 1.13 1.13 1.11 1.06 0.92 0.89 0.88 0.85 0.83 0.78 0.80 0.88 0.89 0.94 1.04 1.16 1.25 1.34 1.47 1.53 1.57 1.61 1.66 1.69 1.77 1.85 1.89 1.97 1.99 2.10 2.11 2.09 2.03 2.01
1.96 1.71 1.55 1.52 1.40 1.28 1.35 1.32 1.36 1.42 1.39 1.17 1.06 1.15 1.08 0.95 0.85 0.84 0.85 0.85 0.86 0.87 0.85 0.88 0.94 1.11 1.22 1.31 1.45 1.56 1.63 1.65 1.58 1.54 1.60 1.65 1.68 1.67 1.67 1.63 1.63 1.59 1.60 1.58
1.61 1.45 1.41 1.39 1.36 1.29 1.29 1.22 1.20 1.27 1.31 1.21 1.16 1.14 1.18 1.08 0.99 0.92 0.86 0.79 0.82 0.88 0.87 0.88 0.93 1.04 1.14 1.22 1.32 1.43 1.52 1.58 1.56 1.54 1.58 1.57 1.57 1.59 1.62 1.57 1.48 1.42 1.38 1.35
1.40 1.36 1.36 1.30 1.24 1.24 1.26 1.18 1.06 1.04 1.13 1.17 1.21 1.24 1.33 1.25 1.13 1.06 1.00 0.91 0.83 0.83 0.82 0.85 0.94 0.97 1.05 1.13 1.19 1.24 1.31 1.39 1.50 1.60 1.63 1.65 1.67 1.71 1.76 1.81 1.75 1.57 1.41 1.31
1.47 1.35 1.26 1.12 1.13 1.18 1.15 1.08 1.00 0.95 1.10 1.27 1.26 1.23 1.27 1.18 1.11 1.04 0.97 0.91 0.88 0.87 0.91 0.92 0.97 0.99 1.05 1.14 1.21 1.22 1.25 1.29 1.30 1.36 1.45 1.52 1.52 1.55 1.62 1.70 1.72 1.61 1.45 1.33
1.54 1.40 1.21 1.07 1.11 1.21 1.22 1.17 1.07 0.98 0.94 1.11 1.23 1.18 1.15 1.07 0.98 0.98 0.99 0.99 1.03 1.03 1.05 1.06 1.09 1.04 1.09 1.17 1.23 1.27 1.23 1.25 1.25 1.23 1.22 1.25 1.28 1.34 1.41 1.50 1.54 1.45 1.34 1.22
1.56 1.48 1.32 1.15 1.08 1.08 1.11 1.14 1.09 1.02 0.93 0.95 1.05 1.12 1.12 1.06 0.96 0.94 0.96 0.99 1.03 1.03 1.05 1.10 1.15 1.16 1.23 1.27 1.29 1.29 1.22 1.20 1.17 1.15 1.15 1.16 1.18 1.23 1.26 1.29 1.32 1.26 1.16 1.01
1.40 1.32 1.21 1.12 1.04 1.01 1.04 1.03 1.02 1.02 0.98 0.95 0.96 0.98 1.02 1.08 1.11 1.07 1.00 1.00 1.00 0.98 0.94 0.94 1.02 1.10 1.23 1.34 1.38 1.35 1.20 1.08 1.02 1.01 1.06 1.10 1.11 1.15 1.20 1.19 1.16 1.10 1.01 0.84
1.25 1.21 1.13 1.06 1.04 1.01 1.00 0.98 0.97 0.98 0.93 0.88 0.93 0.99 1.01 1.07 1.18 1.15 1.07 1.09 1.15 1.16 1.04 0.94 1.01 1.00 1.09 1.29 1.43 1.42 1.27 1.12 1.01 0.97 0.98 0.99 1.00 1.06 1.11 1.07 1.00 0.94 0.87 0.82
1.25 1.27 1.28 1.25 1.16 1.12 1.05 0.98 0.96 0.96 0.94 0.91 0.92 0.95 1.02 1.05 1.15 1.22 1.21 1.15 1.15 1.23 1.20 1.13 1.01 0.92 0.93 1.12 1.39 1.35 1.29 1.19 1.06 0.94 0.96 1.01 1.01 1.04 1.06 1.02 0.94 0.89 0.85 0.81
1.30 1.36 1.35 1.33 1.25 1.15 1.03 0.96 0.98 0.99 0.95 0.97 1.00 1.02 1.08 1.08 1.06 1.17 1.28 1.17 1.06 1.16 1.26 1.23 1.03 0.90 0.88 1.03 1.27 1.29 1.23 1.19 1.09 0.97 0.94 0.95 0.95 0.97 0.99 0.96 0.91 0.85 0.82 0.81
1.47 1.53 1.43 1.28 1.21 1.11 1.00 0.95 0.91 0.90 0.89 0.97 1.03 1.08 1.22 1.25 1.19 1.17 1.14 1.11 1.09 1.21 1.22 1.15 1.03 0.91 0.83 0.86 0.95 1.07 1.05 1.00 0.92 0.85 0.78 0.78 0.84 0.90 0.90 0.89 0.87 0.84 0.81 0.81
1.48 1.44 1.34 1.16 1.10 0.97 0.83 0.82 0.81 0.80 0.80 0.90 1.04 1.20 1.42 1.43 1.35 1.40 1.24 1.00 0.99 1.15 1.13 1.03 1.00 0.89 0.80 0.75 0.80 0.88 0.90 0.91 0.86 0.76 0.66 0.66 0.71 0.75 0.78 0.74 0.74 0.75 0.70 0.63
1.27 1.19 1.08 0.95 0.97 0.93 0.88 0.87 0.84 0.84 0.85 0.90 0.96 1.14 1.42 1.57 1.40 1.17 1.11 1.07 1.04 1.02 0.97 0.97 0.95 0.85 0.79 0.73 0.75 0.83 0.89 0.91 0.85 0.78 0.68 0.68 0.68 0.70 0.73 0.69 0.66 0.64 0.58 0.59
1.24 1.06 0.94 0.94 1.04 1.11 1.06 1.03 1.04 1.05 1.06 1.04 0.99 1.04 1.20 1.44 1.46 1.16 0.97 0.88 0.92 0.91 0.87 0.93 0.94 0.92 0.78 0.69 0.72 0.82 0.89 0.95 0.96 0.88 0.81 0.81 0.78 0.78 0.78 0.76 0.76 0.73 0.71 0.70
1.19 1.09 1.01 0.99 1.04 1.18 1.23 1.26 1.34 1.39 1.41 1.45 1.38 1.26 1.27 1.33 1.25 1.10 0.93 0.80 0.81 0.87 0.83 0.86 0.91 0.92 0.80 0.73 0.74 0.80 0.86 0.92 0.96 0.96 0.93 0.90 0.86 0.86 0.86 0.84 0.84 0.81 0.77 0.72
1.21 1.12 1.09 1.04 1.03 1.15 1.30 1.43 1.56 1.62 1.71 1.85 1.84 1.55 1.43 1.44 1.36 1.23 1.07 0.96 0.98 1.02 0.98 0.92 0.85 0.82 0.84 0.88 0.86 0.79 0.83 0.91 0.91 0.93 0.94 0.89 0.83 0.82 0.82 0.78 0.75 0.73 0.68 0.63